Precipitable_Water
0.23 0.17 0.13 0.16 0.18 0.18 0.15 0.11 0.09 0.11 0.20 0.19 0.18 0.19 0.24 0.26 0.25 0.23 0.22 0.21 0.24 0.27 0.32 0.40 0.46 0.52 0.54 0.53 0.52 0.52 0.53 0.55 0.53 0.50 0.48 0.45 0.42 0.46 0.48 0.50 0.51 0.50 0.50 0.48
0.19 0.15 0.20 0.22 0.22 0.20 0.18 0.14 0.11 0.13 0.17 0.15 0.19 0.21 0.28 0.30 0.29 0.28 0.25 0.22 0.23 0.27 0.30 0.30 0.38 0.46 0.51 0.49 0.50 0.52 0.52 0.54 0.53 0.51 0.50 0.49 0.46 0.47 0.50 0.52 0.51 0.51 0.50 0.50
0.16 0.17 0.22 0.21 0.20 0.16 0.15 0.15 0.15 0.15 0.16 0.17 0.19 0.18 0.23 0.27 0.29 0.30 0.29 0.28 0.28 0.29 0.30 0.31 0.31 0.38 0.48 0.48 0.48 0.49 0.50 0.52 0.53 0.53 0.53 0.52 0.53 0.51 0.47 0.48 0.48 0.50 0.52 0.51
0.19 0.23 0.21 0.21 0.19 0.20 0.16 0.22 0.20 0.19 0.15 0.08 0.17 0.11 0.18 0.23 0.24 0.26 0.28 0.29 0.31 0.32 0.33 0.33 0.34 0.36 0.45 0.47 0.51 0.51 0.52 0.52 0.54 0.55 0.50 0.47 0.42 0.39 0.42 0.44 0.48 0.50 0.54 0.52
0.18 0.21 0.21 0.19 0.20 0.22 0.19 0.24 0.21 0.19 0.16 0.16 0.15 0.12 0.15 0.23 0.21 0.24 0.27 0.29 0.31 0.35 0.36 0.35 0.35 0.37 0.43 0.50 0.48 0.51 0.52 0.53 0.54 0.54 0.53 0.48 0.45 0.46 0.47 0.47 0.47 0.50 0.53 0.55
0.24 0.28 0.25 0.23 0.25 0.23 0.24 0.22 0.24 0.23 0.19 0.14 0.16 0.14 0.16 0.19 0.22 0.24 0.27 0.30 0.32 0.33 0.36 0.38 0.40 0.40 0.41 0.45 0.49 0.50 0.51 0.51 0.53 0.54 0.54 0.51 0.47 0.46 0.46 0.47 0.46 0.47 0.50 0.54
0.23 0.24 0.28 0.29 0.21 0.24 0.24 0.19 0.15 0.15 0.16 0.16 0.21 0.16 0.18 0.25 0.28 0.27 0.26 0.29 0.32 0.35 0.35 0.36 0.38 0.39 0.40 0.39 0.44 0.49 0.52 0.52 0.54 0.54 0.54 0.53 0.51 0.50 0.48 0.48 0.48 0.48 0.48 0.50
0.17 0.16 0.24 0.28 0.23 0.20 0.21 0.20 0.15 0.11 0.13 0.16 0.22 0.17 0.22 0.32 0.35 0.36 0.36 0.35 0.34 0.35 0.37 0.37 0.38 0.40 0.40 0.39 0.41 0.49 0.52 0.54 0.57 0.58 0.56 0.57 0.57 0.54 0.53 0.53 0.52 0.51 0.51 0.51
0.20 0.20 0.28 0.29 0.28 0.26 0.22 0.19 0.24 0.17 0.18 0.15 0.18 0.23 0.31 0.35 0.36 0.37 0.38 0.38 0.37 0.37 0.38 0.39 0.40 0.40 0.41 0.42 0.41 0.43 0.48 0.53 0.59 0.60 0.61 0.61 0.60 0.58 0.55 0.55 0.56 0.54 0.56 0.55
0.27 0.18 0.24 0.27 0.29 0.29 0.25 0.27 0.20 0.20 0.13 0.13 0.18 0.21 0.23 0.30 0.33 0.38 0.38 0.37 0.38 0.39 0.39 0.39 0.39 0.40 0.42 0.43 0.44 0.46 0.46 0.46 0.48 0.50 0.53 0.58 0.58 0.58 0.58 0.58 0.55 0.55 0.55 0.57
0.31 0.23 0.20 0.26 0.23 0.23 0.25 0.22 0.22 0.22 0.22 0.17 0.17 0.22 0.35 0.35 0.38 0.38 0.40 0.42 0.41 0.41 0.41 0.40 0.41 0.41 0.40 0.42 0.42 0.43 0.46 0.47 0.49 0.50 0.50 0.46 0.48 0.53 0.57 0.56 0.55 0.56 0.57 0.57
0.33 0.27 0.17 0.18 0.25 0.27 0.28 0.25 0.24 0.19 0.18 0.21 0.22 0.25 0.42 0.42 0.42 0.42 0.42 0.42 0.43 0.44 0.43 0.43 0.43 0.43 0.41 0.38 0.39 0.39 0.41 0.45 0.48 0.51 0.52 0.49 0.49 0.49 0.50 0.52 0.54 0.56 0.54 0.57
0.33 0.26 0.17 0.17 0.23 0.29 0.26 0.29 0.32 0.28 0.27 0.21 0.20 0.24 0.41 0.41 0.41 0.43 0.42 0.43 0.43 0.43 0.45 0.45 0.45 0.44 0.43 0.40 0.37 0.35 0.37 0.39 0.43 0.47 0.49 0.52 0.48 0.47 0.48 0.49 0.51 0.53 0.55 0.56
0.38 0.29 0.23 0.16 0.23 0.31 0.27 0.31 0.34 0.32 0.25 0.25 0.26 0.30 0.37 0.39 0.39 0.41 0.43 0.43 0.43 0.43 0.44 0.45 0.45 0.45 0.45 0.42 0.39 0.36 0.36 0.37 0.38 0.38 0.42 0.47 0.49 0.47 0.46 0.50 0.51 0.52 0.53 0.53
0.32 0.23 0.26 0.28 0.29 0.28 0.26 0.26 0.29 0.29 0.31 0.25 0.29 0.31 0.36 0.38 0.39 0.41 0.41 0.42 0.42 0.41 0.42 0.43 0.42 0.42 0.40 0.38 0.38 0.38 0.38 0.39 0.38 0.37 0.37 0.39 0.46 0.46 0.44 0.45 0.50 0.52 0.54 0.54
0.29 0.21 0.22 0.18 0.21 0.21 0.20 0.25 0.26 0.27 0.28 0.31 0.35 0.28 0.32 0.33 0.36 0.36 0.38 0.38 0.38 0.38 0.37 0.37 0.37 0.37 0.36 0.38 0.39 0.37 0.36 0.37 0.38 0.38 0.38 0.38 0.41 0.42 0.40 0.40 0.43 0.47 0.50 0.52
0.19 0.16 0.15 0.11 0.18 0.17 0.17 0.23 0.24 0.23 0.25 0.27 0.26 0.28 0.30 0.29 0.30 0.31 0.33 0.34 0.34 0.35 0.36 0.36 0.37 0.38 0.38 0.38 0.38 0.37 0.37 0.37 0.37 0.37 0.37 0.37 0.40 0.42 0.40 0.40 0.40 0.40 0.42 0.48
0.17 0.16 0.16 0.13 0.13 0.08 0.19 0.28 0.29 0.27 0.28 0.30 0.28 0.28 0.29 0.31 0.34 0.38 0.40 0.39 0.38 0.38 0.37 0.37 0.37 0.38 0.38 0.38 0.38 0.37 0.37 0.37 0.37 0.36 0.36 0.38 0.39 0.37 0.37 0.40 0.39 0.39 0.39 0.41
0.26 0.22 0.16 0.13 0.13 0.19 0.23 0.26 0.27 0.27 0.28 0.32 0.30 0.32 0.34 0.36 0.35 0.35 0.38 0.39 0.39 0.39 0.39 0.39 0.39 0.38 0.38 0.37 0.38 0.38 0.36 0.36 0.36 0.35 0.36 0.37 0.38 0.35 0.36 0.37 0.37 0.39 0.40 0.40
0.28 0.28 0.21 0.17 0.14 0.12 0.19 0.25 0.32 0.34 0.23 0.32 0.30 0.31 0.32 0.33 0.27 0.30 0.36 0.38 0.38 0.38 0.37 0.36 0.37 0.38 0.38 0.37 0.38 0.37 0.35 0.34 0.32 0.33 0.35 0.36 0.37 0.35 0.35 0.35 0.37 0.38 0.40 0.40
0.22 0.23 0.20 0.20 0.19 0.21 0.29 0.28 0.31 0.21 0.23 0.29 0.30 0.30 0.30 0.28 0.30 0.33 0.35 0.35 0.36 0.35 0.35 0.37 0.37 0.35 0.35 0.36 0.36 0.33 0.32 0.31 0.33 0.35 0.35 0.35 0.35 0.34 0.36 0.36 0.36 0.37 0.38 0.38
0.19 0.18 0.19 0.21 0.19 0.17 0.33 0.29 0.23 0.26 0.29 0.29 0.30 0.30 0.29 0.30 0.31 0.31 0.31 0.30 0.30 0.30 0.31 0.32 0.32 0.32 0.34 0.35 0.35 0.32 0.31 0.34 0.34 0.35 0.34 0.34 0.35 0.36 0.37 0.36 0.35 0.34 0.35 0.36
0.14 0.19 0.17 0.19 0.18 0.26 0.28 0.27 0.28 0.29 0.28 0.30 0.30 0.31 0.30 0.29 0.27 0.26 0.24 0.24 0.24 0.25 0.26 0.27 0.27 0.27 0.28 0.31 0.33 0.31 0.32 0.34 0.37 0.37 0.36 0.36 0.37 0.36 0.36 0.35 0.36 0.34 0.35 0.34
0.19 0.23 0.18 0.17 0.17 0.18 0.20 0.23 0.27 0.28 0.29 0.30 0.30 0.28 0.28 0.24 0.23 0.22 0.23 0.24 0.23 0.24 0.24 0.25 0.25 0.25 0.25 0.28 0.28 0.28 0.30 0.30 0.31 0.31 0.32 0.33 0.34 0.36 0.37 0.36 0.36 0.35 0.35 0.35
0.19 0.21 0.17 0.17 0.18 0.21 0.23 0.29 0.29 0.31 0.31 0.31 0.31 0.29 0.26 0.24 0.22 0.23 0.23 0.24 0.26 0.26 0.28 0.28 0.27 0.27 0.28 0.30 0.30 0.31 0.30 0.31 0.29 0.29 0.31 0.31 0.31 0.31 0.33 0.35 0.36 0.36 0.38 0.40
0.21 0.19 0.18 0.15 0.22 0.25 0.24 0.29 0.31 0.29 0.29 0.29 0.27 0.25 0.26 0.25 0.25 0.26 0.27 0.28 0.29 0.29 0.30 0.30 0.31 0.31 0.33 0.34 0.35 0.38 0.40 0.39 0.37 0.35 0.35 0.35 0.35 0.36 0.36 0.36 0.35 0.38 0.39 0.40
Wind_Speed
4 4 4 6 4 5 6 6 7 6 5 6 6 7 5 5 5 6 10 17 19 19 19 21 21 21 20 21 21 22 22 21 20 19 18 18 17 16 16 16 17 17 17 17
4 5 6 5 5 6 7 7 8 7 5 5 4 2 3 5 5 6 5 5 11 14 14 16 18 19 21 22 22 22 22 22 21 21 19 18 18 18 17 17 17 18 18 18
5 6 5 5 7 7 6 6 6 6 8 4 3 4 5 4 6 7 5 2 5 8 11 13 16 19 20 21 22 22 23 22 22 21 20 19 18 18 18 18 18 18 18 19
7 6 5 6 7 6 7 5 5 6 6 6 5 6 5 5 5 6 6 3 3 6 7 8 10 14 19 22 23 22 22 22 22 22 21 21 20 20 20 19 19 19 19 20
9 8 8 8 8 8 9 8 9 7 6 7 7 3 7 4 3 5 6 5 4 3 5 7 8 10 15 21 23 23 23 22 22 23 23 22 22 21 21 20 20 20 20 21
13 12 11 10 10 10 10 9 8 6 5 6 6 4 7 5 3 1 3 5 5 4 4 4 5 7 9 15 22 24 24 24 23 23 23 23 24 23 23 22 22 22 22 22
14 12 12 11 11 10 8 8 9 8 7 7 5 4 7 5 3 2 1 4 5 5 6 5 5 4 6 8 16 22 25 25 25 24 24 25 25 25 25 25 24 24 23 23
12 14 12 12 12 12 11 9 8 10 8 8 7 6 6 5 3 2 1 1 3 5 6 6 6 5 4 2 6 12 19 24 26 27 27 27 27 27 27 27 27 27 26 26
13 15 14 14 14 12 12 11 11 10 11 9 9 7 5 7 4 3 3 3 3 4 5 6 6 6 5 4 4 7 10 15 21 25 28 29 29 30 29 30 29 29 29 29
14 16 15 15 14 14 14 13 12 11 11 11 10 9 10 11 8 6 5 5 5 5 6 6 7 7 6 6 7 8 9 11 15 18 21 26 29 31 31 32 32 31 31 31
15 15 17 15 14 15 14 14 13 13 12 12 10 12 12 14 11 9 9 8 7 7 7 8 8 9 9 9 9 10 11 13 14 16 18 21 25 28 30 31 32 33 33 33
16 16 18 19 19 18 16 15 14 13 15 14 13 14 12 12 12 12 11 11 10 10 9 10 11 12 12 12 12 13 13 14 15 17 18 18 18 22 27 30 32 33 33 34
18 18 17 17 16 15 14 15 15 15 15 16 14 16 14 14 13 15 15 15 14 14 14 14 14 15 15 16 16 16 16 16 17 18 19 19 20 21 22 25 29 32 34 35
19 20 20 19 17 17 18 18 17 16 16 16 17 16 16 16 17 18 18 18 18 17 18 18 18 19 20 19 20 20 20 20 21 21 21 22 22 22 23 25 26 28 32 35
18 20 21 22 23 23 25 25 24 22 21 18 16 15 18 20 20 20 20 20 21 21 21 22 23 24 25 25 24 23 24 24 24 24 24 25 25 25 25 26 26 28 30 32
21 21 21 22 22 22 22 22 24 24 25 24 19 18 22 22 23 23 23 24 25 25 26 27 28 28 28 28 27 28 28 28 28 28 28 28 28 29 29 29 29 29 30 31
24 22 21 23 21 22 19 22 17 16 18 21 20 23 24 25 25 26 26 27 28 29 31 32 31 31 31 31 32 32 32 31 31 31 32 32 32 32 32 32 33 33 33 33
23 21 21 22 20 20 17 15 14 13 16 16 19 23 25 26 27 27 27 29 31 32 33 34 34 35 35 35 35 35 35 35 35 35 35 35 35 36 36 36 36 36 36 36
22 19 20 19 19 17 18 18 19 20 19 19 22 23 23 25 26 28 29 31 33 35 36 36 37 38 38 38 38 39 39 39 39 39 39 39 39 39 40 40 40 39 39 39
16 19 19 17 18 19 19 22 23 19 23 22 23 23 25 26 28 30 33 34 36 37 38 39 41 41 41 41 41 41 41 42 42 43 43 43 43 44 43 43 43 43 43 43
18 18 21 23 22 21 21 22 21 21 21 25 24 26 28 29 31 35 36 36 37 39 40 42 42 43 44 45 45 45 45 45 45 45 46 46 45 46 46 46 46 46 46 46
20 20 20 20 20 21 21 21 21 25 27 27 28 30 32 34 35 36 37 38 40 41 43 43 44 43 44 44 45 45 45 46 46 47 47 47 48 47 47 48 48 48 48 49
23 22 23 23 24 26 25 27 29 27 29 29 30 32 33 34 36 39 41 42 42 44 44 45 45 46 46 47 47 49 49 49 50 49 49 48 49 49 49 49 50 49 49 49
25 24 25 26 28 29 31 29 28 29 28 29 30 31 32 35 37 39 40 42 43 44 45 46 47 48 49 49 50 51 51 52 53 54 54 54 52 52 51 51 50 50 50 50
26 26 27 29 29 28 25 24 26 24 25 27 29 30 32 34 36 38 40 41 42 43 44 46 47 48 49 50 50 51 52 52 53 53 52 53 53 54 54 54 52 52 52 52
24 25 25 27 26 26 26 25 23 23 24 26 28 29 31 34 35 37 38 39 40 42 42 43 44 45 45 46 47 46 46 47 49 50 50 51 51 51 52 52 53 53 54 54
Wind_Direction
316 326 296 296 289 292 299 295 302 301 303 322 305 310 325 335 349 319 274 244 236 235 241 239 236 232 228 225 222 219 217 219 218 217 217 219 220 220 221 221 222 223 225 226
318 281 290 290 297 299 295 303 302 299 304 317 333 336 319 358 343 333 313 264 232 234 244 242 234 231 226 223 222 219 219 219 220 220 222 223 224 225 226 227 227 229 230 231
262 273 293 287 304 310 310 300 298 289 305 298 276 320 322 326 348 355 354 289 229 237 246 251 242 235 228 223 220 219 219 221 221 223 223 225 227 228 229 231 233 234 234 234
272 282 276 289 294 298 305 301 309 308 314 278 278 266 291 310 350 0 3 355 268 254 258 258 253 237 229 226 223 221 221 222 223 224 225 227 229 231 233 235 237 238 237 237
273 277 279 290 286 290 282 296 291 286 292 300 277 248 262 283 331 347 358 17 6 306 281 276 268 251 240 226 224 224 225 225 226 227 230 230 233 236 238 239 240 241 241 239
267 275 273 274 288 284 290 297 307 294 284 293 261 236 256 248 236 319 1 23 17 7 359 328 292 262 256 236 227 226 226 228 230 231 233 234 236 238 239 241 242 243 243 242
285 274 274 276 286 288 290 297 288 286 286 261 257 268 262 229 222 212 7 24 24 23 20 12 360 331 279 251 234 230 230 232 234 235 236 237 239 240 241 242 243 244 245 244
281 282 274 274 275 275 275 267 261 272 264 268 267 245 247 223 202 231 268 310 16 20 17 15 9 4 354 287 247 235 235 237 239 240 242 242 243 244 244 245 246 246 247 247
284 273 275 270 274 274 274 268 262 264 269 266 258 252 244 240 243 258 276 296 313 325 337 350 355 356 345 314 289 259 250 246 245 246 247 246 247 247 247 248 249 249 250 250
279 280 275 275 274 269 262 265 266 266 259 256 259 241 253 242 237 248 266 278 286 296 313 320 329 330 323 312 294 283 269 260 257 255 254 251 251 251 250 250 250 250 251 251
282 273 276 276 270 269 271 266 260 255 250 248 245 254 268 239 237 239 253 265 275 287 295 302 309 313 311 306 300 291 281 275 272 268 265 262 256 253 252 252 252 252 252 252
281 275 273 268 273 271 265 262 258 254 258 254 248 252 255 248 245 247 253 262 269 278 288 295 299 302 303 302 297 292 288 283 279 274 270 269 267 261 256 255 254 254 253 253
283 276 279 281 276 273 267 267 265 258 259 253 248 248 250 252 257 262 262 265 269 276 283 288 295 299 300 297 295 290 286 284 282 279 276 273 273 270 267 263 258 256 255 255
278 273 266 265 271 274 270 274 270 262 259 257 252 242 254 257 261 267 267 265 269 274 279 282 287 291 295 294 291 289 286 283 282 281 278 275 274 274 273 269 266 263 260 258
280 275 275 272 270 267 267 267 266 262 258 255 249 248 254 259 262 264 266 270 273 276 280 283 285 288 290 290 287 287 285 283 282 279 278 277 275 275 274 274 272 269 266 263
283 276 280 274 277 274 267 273 270 263 261 255 241 254 261 265 263 266 268 273 276 277 281 284 286 287 287 286 285 286 284 283 282 279 278 278 275 275 275 275 273 272 271 269
277 276 279 274 278 276 268 278 267 262 270 257 254 255 261 265 267 268 268 275 277 278 281 283 284 284 285 285 284 284 283 282 280 280 279 277 276 275 276 275 274 273 272 271
271 273 273 274 279 267 257 271 264 264 266 265 261 263 265 266 268 269 270 277 279 280 281 282 283 283 283 283 283 282 282 281 279 279 278 277 276 275 275 274 274 273 273 272
262 268 273 272 270 268 266 274 272 268 260 271 273 271 270 272 270 271 277 278 279 280 281 282 283 283 283 283 281 281 281 280 279 278 277 276 276 277 275 274 273 272 272 272
270 266 267 272 270 268 270 273 277 265 260 274 274 274 275 277 277 274 279 281 281 281 281 282 283 282 282 282 281 280 280 279 279 278 277 277 276 276 275 274 273 272 272 271
280 277 267 267 267 270 272 278 277 259 269 280 275 276 278 278 277 281 283 282 283 283 283 284 283 282 283 283 281 280 279 278 278 277 278 277 276 276 274 274 273 272 272 271
278 278 274 273 269 268 275 277 277 271 277 276 277 279 281 281 283 284 285 286 287 287 286 286 285 284 285 284 283 281 280 281 280 278 277 276 276 276 275 274 273 272 271 270
277 271 271 266 268 273 275 279 280 275 274 277 279 282 284 285 286 287 288 288 288 288 287 287 285 284 284 282 281 281 280 280 279 279 278 277 276 275 274 274 274 273 272 270
279 276 273 279 275 276 278 277 273 277 277 281 284 286 287 288 290 291 291 291 290 289 288 288 286 285 284 283 283 282 281 280 279 278 277 276 276 275 274 274 273 272 272 271
277 280 277 275 279 276 273 274 278 277 279 283 286 288 290 293 294 294 294 293 292 291 290 290 288 287 286 286 284 283 282 281 280 278 278 277 276 274 273 272 272 272 271 271
277 275 271 272 272 273 273 278 277 280 284 287 289 291 294 296 297 298 297 297 296 295 293 292 291 290 290 289 289 288 286 284 281 279 278 277 276 276 275 274 273 271 270 271